Date String (YYYY-MM-DD hh:mm:ss) UTC,Instrument flags,Ambient pressure (hPa),Sample flow (lpm),Bypass flow (lpm),Sample temperature (°C),Ambient temperature (°C),ASC tube jacket temperature (°C),LED temperature (°C),Box temperature (°C),Sample RH (%),Span deviation,Mass concentration (μg/m³),Mass concentration (μg/m³),Mass concentration (μg/m³)
DateTimeUTC,F1_M11,P_M11,Q1_M11,Q2_M11,T1_M11,T2_M11,T3_M11,T4_M11,T5_M11,U1_M11,ZSPAN_M11,X2_M11,X0_M11,X1_M11
2022-04-09 22:00:00,,0813.1,4.99,0.00,29.7,28.5,00.0,38.6,31.5,06.7,0000.0,0004.34,0012.90,0002.17
2022-04-09 22:01:00,,0813.2,5.00,0.00,29.7,28.6,00.0,38.6,31.5,06.7,0000.0,0004.33,0012.36,0002.15
2022-04-09 22:02:00,,0813.1,5.02,0.00,29.7,28.6,00.0,38.6,31.5,06.4,0000.0,0004.31,0012.58,0002.14
2022-04-09 22:03:00,,0813.1,4.98,0.00,29.7,28.7,00.0,38.6,31.5,06.3,0000.0,0004.27,0012.76,0002.13
2022-04-09 22:04:00,,0813.1,4.99,0.00,29.8,28.8,00.0,38.6,31.5,06.5,0000.0,0004.29,0013.17,0002.13
2022-04-09 22:05:00,,0813.0,5.02,0.00,29.8,28.8,00.0,38.6,31.6,06.4,0000.0,0004.23,0013.29,0002.10
2022-04-09 22:06:00,,0813.0,4.99,0.00,29.8,28.9,00.0,38.6,31.6,06.4,0000.0,0004.27,0013.33,0002.10
2022-04-09 22:07:00,,0813.0,4.99,0.00,29.8,28.9,00.0,38.7,31.6,06.1,0000.0,0004.29,0012.80,0002.10
2022-04-09 22:08:00,,0813.0,5.00,0.00,29.8,28.8,00.0,38.7,31.6,06.3,0000.0,0004.31,0012.54,0002.12
2022-04-09 22:09:00,,0813.0,5.00,0.00,29.7,27.1,00.0,38.7,31.2,06.4,0000.0,0004.24,0012.26,0002.11
2022-04-09 22:10:00,,0812.9,5.00,0.00,29.6,26.2,00.0,38.7,31.0,06.4,0000.0,0004.21,0012.00,0002.10
2022-04-09 22:11:00,,0812.8,5.00,0.00,29.6,26.5,00.0,38.6,31.1,06.3,0000.0,0004.19,0011.68,0002.10
2022-04-09 22:12:00,,0812.8,5.00,0.00,29.5,26.8,00.0,38.6,31.1,06.4,0000.0,0004.19,0011.40,0002.10
2022-04-09 22:13:00,,0812.9,5.01,0.00,29.5,27.2,00.0,38.5,31.2,06.5,0000.0,0004.17,0012.33,0002.10
2022-04-09 22:14:00,,0812.9,5.01,0.00,29.6,27.6,00.0,38.5,31.3,06.5,0000.0,0004.19,0013.57,0002.10
2022-04-09 22:15:00,,0812.9,4.99,0.00,29.6,27.8,00.0,38.5,31.3,06.7,0000.0,0004.19,0013.43,0002.10
2022-04-09 22:16:00,,0813.0,5.00,0.00,29.6,28.0,00.0,38.5,31.4,06.7,0000.0,0004.20,0013.14,0002.11
2022-04-09 22:17:00,,0812.9,5.02,0.00,29.6,28.2,00.0,38.5,31.4,06.4,0000.0,0004.12,0012.95,0002.11
2022-04-09 22:18:00,,0812.8,4.99,0.00,29.6,28.3,00.0,38.5,31.4,06.2,0000.0,0004.13,0013.01,0002.10
2022-04-09 22:19:00,,0812.9,5.00,0.00,29.7,28.5,00.0,38.5,31.5,06.3,0000.0,0004.16,0013.22,0002.08
2022-04-09 22:20:00,,0812.8,5.01,0.00,29.7,28.6,00.0,38.6,31.5,06.4,0000.0,0004.14,0014.28,0002.07
2022-04-09 22:21:00,,0812.9,4.99,0.00,29.7,28.6,00.0,38.6,31.6,06.4,0000.0,0004.14,0014.46,0002.07
2022-04-09 22:22:00,,0812.8,4.99,0.00,29.8,28.7,00.0,38.6,31.6,06.1,0000.0,0004.16,0014.55,0002.08
2022-04-09 22:23:00,,0812.7,5.00,0.00,29.8,28.8,00.0,38.6,31.6,06.1,0000.0,0004.13,0014.42,0002.07
2022-04-09 22:24:00,,0812.8,5.00,0.00,29.8,28.9,00.0,38.6,31.7,06.2,0000.0,0004.12,0014.04,0002.06
2022-04-09 22:25:00,,0812.8,5.00,0.00,29.9,28.9,00.0,38.6,31.7,06.1,0000.0,0004.09,0012.22,0002.05
2022-04-09 22:26:00,,0812.8,5.01,0.00,29.9,28.3,00.0,38.7,31.5,06.1,0000.0,0004.06,0012.52,0002.04
2022-04-09 22:27:00,,0812.8,4.99,0.00,29.7,25.9,00.0,38.7,31.0,06.1,0000.0,0004.05,0013.09,0002.03
2022-04-09 22:28:00,,0812.7,5.01,0.00,29.6,25.1,00.0,38.6,30.8,06.4,0000.0,0004.11,0013.62,0002.03
2022-04-09 22:29:00,,0812.7,4.99,0.00,29.5,25.5,00.0,38.6,30.9,06.6,0000.0,0004.07,0014.18,0002.02
2022-04-09 22:30:00,,0812.8,5.00,0.00,29.4,26.0,00.0,38.5,30.9,06.5,0000.0,0004.07,0014.21,0002.05
2022-04-09 22:31:00,,0812.7,4.99,0.00,29.4,26.5,00.0,38.5,31.0,06.3,0000.0,0004.07,0013.19,0002.04
2022-04-09 22:32:00,,0812.8,5.01,0.00,29.4,26.9,00.0,38.5,31.1,06.2,0000.0,0004.11,0012.74,0002.03
2022-04-09 22:33:00,,0812.8,5.01,0.00,29.5,27.2,00.0,38.4,31.2,06.4,0000.0,0004.07,0013.42,0002.03
2022-04-09 22:34:00,,0812.7,4.99,0.00,29.5,27.5,00.0,38.4,31.2,06.5,0000.0,0004.07,0013.48,0002.04
2022-04-09 22:35:00,,0812.6,5.00,0.00,29.5,27.8,00.0,38.4,31.3,06.4,0000.0,0004.05,0012.77,0002.04
2022-04-09 22:36:00,,0812.6,5.00,0.00,29.5,27.9,00.0,38.4,31.3,06.5,0000.0,0004.09,0012.62,0002.05
2022-04-09 22:37:00,,0812.6,5.00,0.00,29.5,28.1,00.0,38.4,31.4,06.5,0000.0,0004.13,0012.11,0002.06
2022-04-09 22:38:00,,0812.7,5.01,0.00,29.6,28.3,00.0,38.4,31.4,06.3,0000.0,0004.16,0011.88,0002.07
2022-04-09 22:39:00,,0812.6,4.99,0.00,29.6,28.4,00.0,38.4,31.4,06.5,0000.0,0004.10,0011.66,0002.07
2022-04-09 22:40:00,,0812.6,4.99,0.00,29.6,28.5,00.0,38.5,31.5,06.4,0000.0,0004.10,0011.01,0002.06
2022-04-09 22:41:00,,0812.6,5.02,0.00,29.7,28.6,00.0,38.5,31.5,06.2,0000.0,0004.11,0011.05,0002.03
2022-04-09 22:42:00,,0812.6,4.99,0.00,29.7,28.6,00.0,38.5,31.6,06.3,0000.0,0004.11,0011.11,0002.01
2022-04-09 22:43:00,,0812.7,4.99,0.00,29.7,28.7,00.0,38.5,31.6,06.3,0000.0,0004.09,0011.08,0002.01
2022-04-09 22:44:00,,0812.6,5.01,0.00,29.8,28.8,00.0,38.5,31.6,06.5,0000.0,0004.10,0011.07,0002.00
2022-04-09 22:45:00,,0812.7,5.00,0.00,29.8,28.8,00.0,38.6,31.7,06.3,0000.0,0004.12,0011.41,0001.99
2022-04-09 22:46:00,,0812.6,4.99,0.00,29.8,28.9,00.0,38.6,31.7,06.5,0000.0,0004.17,0011.91,0002.01
2022-04-09 22:47:00,,0812.6,5.00,0.00,29.9,28.9,00.0,38.6,31.7,06.3,0000.0,0004.20,0012.14,0002.01
2022-04-09 22:48:00,,0812.6,4.99,0.00,29.9,29.0,00.0,38.6,31.7,06.3,0000.0,0004.15,0012.53,0002.00
2022-04-09 22:49:00,,0812.6,5.01,0.00,29.9,29.0,00.0,38.7,31.8,06.3,0000.0,0004.14,0012.42,0001.99
2022-04-09 22:50:00,,0812.6,5.00,0.00,29.9,28.3,00.0,38.7,31.6,06.2,0000.0,0004.15,0012.03,0002.00
2022-04-09 22:51:00,,0812.5,5.00,0.00,29.8,26.5,00.0,38.7,31.3,06.2,0000.0,0004.19,0012.01,0002.01
2022-04-09 22:52:00,,0812.5,4.99,0.00,29.7,26.3,00.0,38.7,31.2,06.4,0000.0,0004.21,0012.45,0002.01
2022-04-09 22:53:00,,0812.6,5.00,0.00,29.7,26.6,00.0,38.7,31.2,06.4,0000.0,0004.23,0012.90,0002.05
2022-04-09 22:54:00,,0812.7,5.01,0.00,29.6,27.0,00.0,38.6,31.3,06.4,0000.0,0004.22,0013.24,0002.07
2022-04-09 22:55:00,,0812.6,5.00,0.00,29.6,27.3,00.0,38.6,31.3,06.5,0000.0,0004.19,0012.79,0002.09
2022-04-09 22:56:00,,0812.6,4.98,0.00,29.7,27.6,00.0,38.6,31.4,06.5,0000.0,0004.17,0012.31,0002.08
2022-04-09 22:57:00,,0812.6,5.01,0.00,29.7,27.9,00.0,38.6,31.4,06.5,0000.0,0004.16,0011.84,0002.08
2022-04-09 22:58:00,,0812.7,4.98,0.00,29.7,28.1,00.0,38.6,31.5,06.6,0000.0,0004.13,0011.64,0002.08
2022-04-09 22:59:00,,0812.6,5.01,0.00,29.7,28.3,00.0,38.6,31.6,06.7,0000.0,0004.16,0011.11,0002.09
